Wind_Speed
29 27 25 23 20 18 19 17 17 17 16 18 21 19 19 20 20 20 19 20 17 20
29 30 24 23 22 22 20 17 19 20 20 19 19 18 19 17 18 18 18 17 19 20
26 28 29 27 26 23 21 22 20 20 20 19 18 18 20 17 20 18 18 18 23 20
24 24 26 26 27 26 22 21 23 25 23 19 18 19 19 21 20 18 16 19 20 18
23 23 23 23 23 23 23 23 25 25 24 22 19 16 18 19 18 19 17 16 17 17
24 24 24 23 22 22 23 24 21 22 23 22 21 20 18 18 18 19 19 16 15 12
25 25 23 23 22 21 23 23 22 22 22 21 21 20 18 17 17 18 16 13 12 12
26 24 23 23 23 21 22 21 20 20 21 20 19 21 19 17 15 15 13 12 11 11
28 25 27 25 23 21 21 19 18 19 19 20 17 16 18 15 12 13 12 11 10 12
31 30 29 27 24 22 21 19 20 19 19 18 16 18 21 17 13 12 12 13 12 12
34 30 28 27 25 23 22 21 20 18 17 16 15 17 19 17 16 14 14 12 13 12
36 32 28 26 26 24 24 22 20 18 18 18 14 17 15 16 17 17 17 15 15 13
34 31 31 26 24 22 20 20 18 16 15 17 14 15 14 14 13 13 13 15 18 19
34 31 32 26 23 22 22 20 20 18 17 15 14 15 12 14 14 14 15 16 18 16
Wind_Direction
226 228 230 226 220 231 229 232 232 244 245 247 243 251 259 254 259 260 265 266 264 262
224 226 223 221 234 223 225 231 237 235 236 244 248 250 252 250 258 259 261 263 262 272
221 227 227 229 228 224 229 230 220 239 235 243 249 247 248 248 259 259 260 258 269 271
218 221 225 226 232 233 228 226 237 231 241 246 251 250 249 249 257 257 264 263 265 273
215 218 220 225 228 231 235 232 237 242 244 244 243 249 247 250 246 255 260 272 269 274
212 215 216 223 224 228 232 234 228 237 237 240 240 241 246 253 249 252 262 266 263 260
214 219 221 221 223 220 230 231 226 227 240 238 238 244 249 246 247 251 258 253 248 245
221 219 221 224 222 221 220 232 226 228 231 244 234 238 240 250 244 244 245 249 246 246
224 217 218 219 227 223 216 218 223 219 229 229 228 239 246 243 238 237 240 242 243 228
220 221 218 222 224 219 215 209 214 212 221 229 227 228 243 246 234 250 246 236 229 239
220 221 216 219 221 215 211 204 206 209 210 224 234 227 237 238 227 223 237 234 244 231
221 221 212 211 217 215 208 197 200 202 208 211 216 244 246 235 232 221 233 246 243 242
219 221 212 209 213 209 210 199 192 199 212 216 210 241 244 236 225 237 250 256 255 254
215 215 215 204 207 209 204 211 190 201 206 218 216 227 239 237 235 227 243 248 250 254
Height
1536 1540 1542 1546 1550 1552 1554 1556 1558 1556 1556 1558 1559 1561 1562 1562 1563 1564 1565 1565 1566 1566
1531 1535 1538 1541 1544 1547 1549 1552 1554 1554 1555 1555 1555 1557 1557 1559 1559 1560 1561 1560 1560 1561
1526 1529 1532 1536 1538 1542 1544 1545 1548 1548 1550 1550 1551 1552 1553 1555 1554 1556 1556 1556 1555 1556
1523 1525 1527 1530 1532 1535 1538 1540 1541 1542 1544 1545 1546 1547 1547 1549 1549 1550 1551 1551 1552 1551
1519 1521 1524 1525 1528 1530 1532 1534 1536 1537 1538 1539 1541 1542 1542 1544 1545 1545 1545 1546 1546 1547
1515 1517 1519 1522 1524 1527 1527 1529 1531 1532 1532 1534 1536 1537 1538 1538 1540 1541 1542 1542 1543 1544
1511 1514 1516 1518 1520 1522 1522 1523 1526 1528 1529 1530 1532 1533 1534 1535 1536 1538 1538 1539 1540 1541
1508 1510 1512 1513 1514 1516 1519 1519 1522 1524 1526 1528 1529 1530 1531 1532 1533 1534 1535 1536 1537 1537
1503 1506 1507 1508 1508 1511 1513 1516 1518 1520 1522 1525 1526 1528 1528 1529 1530 1531 1532 1533 1534 1535
1496 1497 1501 1503 1504 1506 1508 1512 1514 1516 1518 1520 1522 1524 1525 1527 1529 1528 1529 1530 1531 1532
1490 1492 1495 1498 1501 1502 1503 1506 1508 1512 1515 1516 1518 1519 1522 1524 1525 1528 1528 1529 1529 1530
1482 1485 1490 1493 1496 1499 1499 1500 1504 1508 1510 1513 1516 1517 1518 1519 1521 1523 1525 1525 1525 1527
1474 1480 1482 1488 1493 1497 1502 1500 1500 1505 1507 1508 1510 1512 1514 1515 1518 1521 1522 1522 1521 1522
1470 1471 1477 1482 1489 1494 1496 1501 1498 1500 1503 1505 1505 1508 1510 1512 1513 1518 1520 1520 1519 1519